[[{"header":{"parameterUnit":"m.s-1","parameterCategory":1,"la1":30.2991,"la2":30.254,"lo1":-89.0895,"lo2":-89.0444,"dy":0.0017,"dx":0.0017,"nx":28,"ny":28,"refTime":"2024-06-18T03:00:00:Z","depth":0,"parameterNumber":2,"parameterNumberName":"U-component_of_WINDS"},"data":[0,0,0,0,0,0,0,0,0,0,0,0,0,0,0,0,0,0,0,0,0,0,0,0,0,0,0,0,0,0,0,0,0,0,0,0,0,0,0,0,0,0,0,0,0,0,0,0,0,0,0,0,0,0,0,0,0,0,-9.5265,-9.5265,0,-9.5248,-9.5248,-9.5248,-9.502,-9.5014,-9.5008,-9.5003,-9.4984,-9.4989,-9.4994,0,0,0,0,0,0,0,0,0,0,0,0,0,-9.5101,-9.5105,-9.5265,-9.5265,-9.5265,-9.5248,-9.5248,-9.5248,-9.5021,-9.5014,-9.5007,-9.5,-9.4983,-9.4988,-9.4994,0,0,0,0,0,0,0,0,0,0,0,0,0,-9.5137,-9.5106,-9.5265,-9.5149,-9.5139,-9.5248,-9.5248,-9.5247,-9.5022,-9.5013,-9.5005,-9.4997,-9.4981,-9.4988,-9.4995,-9.5214,0,0,-9.5018,-9.5021,0,0,0,0,0,0,0,0,-9.5135,-9.5143,-9.5167,-9.5158,-9.5146,-9.5127,-9.5183,-9.5236,-9.5024,-9.5067,-9.5002,-9.4992,-9.5039,-9.5041,-9.5056,-9.5213,-9.5212,-9.5018,-9.5023,-9.5026,-9.5028,0,0,0,0,0,0,0,-9.5133,-9.5143,-9.5258,-9.5167,-9.5155,-9.5098,-9.5094,-9.5192,-9.5101,-9.5062,-9.5045,-9.5047,-9.5031,-9.505,-9.5054,-9.5212,-9.5018,-9.5024,-9.5029,-9.5032,-9.5545,-9.5553,0,0,0,0,0,0,-9.5147,-9.5142,-9.5259,-9.5258,-9.5119,-9.5108,-9.5103,-9.5142,-9.51,-9.5085,-9.5054,-9.5036,-9.5042,-9.5046,-9.5053,-9.5303,-9.5026,-9.5033,-9.5037,-9.5536,-9.5547,-9.5557,0,0,0,0,0,0,-9.5144,-9.5159,-9.5259,-9.5195,-9.5204,-9.512,-9.5166,-9.5146,-9.5164,-9.5094,-9.5076,-9.509,-9.5035,-9.5043,-9.5175,-9.5299,-9.5036,-9.5043,-9.5525,-9.5539,-9.5552,-9.5808,0,0,0,0,0,0,-9.514,-9.516,-9.5241,-9.5199,-9.5208,-9.5382,-9.5173,-9.5152,-9.5178,-9.5154,-9.5122,-9.5109,-9.5029,-9.5165,-9.5182,-9.5305,-9.5048,-9.5513,-9.5531,-9.5547,-9.5787,-9.5828,-9.5863,0,0,0,0,0,-9.5135,-9.5314,-9.5247,-9.5262,-9.5309,-9.539,-9.5395,-9.53,-9.5189,-9.527,-9.5225,-9.511,-9.5285,-9.5181,-9.5198,-9.5325,-9.5505,-9.5526,-9.5546,-9.577,-9.582,-9.5863,0,0,0,0,0,0,-9.5373,-9.5306,-9.5231,-9.5402,-9.5404,-9.5351,-9.545,-9.5356,-9.5389,-9.5365,-9.5246,-9.524,-9.5391,-9.5371,-9.5257,-9.5533,-9.5374,-9.54,-9.5539,-9.5586,-9.5623,-9.5623,-9.5054,0,0,0,0,0,-9.5446,-9.5517,-9.5455,-9.5612,-9.5617,-9.5535,-9.5567,-9.5494,-9.549,-9.5489,-9.5453,-9.5455,-9.5509,-9.5547,-9.5594,-9.5786,-9.5774,-9.5882,-9.592,-9.5951,-9.5973,-9.6071,-9.6117,-9.5625,-9.5625,-9.5624,0,0,-9.5595,-9.5568,-9.562,-9.5659,-9.5652,-9.5728,-9.5537,-9.5625,-9.568,-9.5502,-9.5623,-9.5599,-9.5592,-9.5755,-9.5825,-9.5743,-9.6107,-9.5978,-9.6003,-9.6007,-9.6097,-9.6143,-9.6185,-9.5639,-9.5636,-9.5634,0,0,-9.5906,-9.5895,-9.6022,-9.6019,-9.6011,-9.5955,-9.5987,-9.595,-9.5926,-9.6047,-9.5915,-9.598,-9.6077,-9.6077,-9.609,-9.6405,-9.6299,-9.6424,-9.662,-9.6717,-9.6756,-9.6789,-9.6898,-9.6939,-9.6447,-9.6447,-9.6448,0,-9.6092,-9.6202,-9.61,-9.6197,-9.6218,-9.6063,-9.6191,-9.6193,-9.6201,-9.6218,-9.6128,-9.6246,-9.6231,-9.639,-9.6468,-9.6485,-9.6515,-9.6424,-9.6759,-9.6791,-9.6821,-9.6923,-9.6965,-9.6462,-9.646,-9.6459,-9.6458,0,-9.643,-9.6509,-9.6614,-9.6625,-9.6658,-9.6771,-9.6685,-9.6731,-9.6657,-9.6612,-9.6737,-9.6714,-9.6752,-9.6786,-9.6714,-9.6936,-9.6885,-9.678,-9.6616,-9.6884,-9.6978,-9.7017,-9.6483,-9.6478,-9.6474,-9.647,0,0,-9.6885,-9.6841,-9.688,-9.6883,-9.6864,-9.6922,-9.7029,-9.7067,-9.7107,-9.712,-9.7204,-9.7292,-9.7194,-9.7209,-9.7136,-9.7223,-9.747,-9.7105,-9.7103,-9.717,-9.7709,-9.7786,-9.7833,-9.7402,-9.741,-9.7415,-9.7709,0,-9.7181,-9.7359,-9.7272,-9.746,-9.753,-9.7385,-9.7478,-9.7476,-9.7438,-9.7492,-9.7449,-9.7511,-9.7379,-9.7387,-9.7466,-9.7423,-9.7576,-9.7401,-9.7477,-9.7481,-9.7478,-9.7882,-9.7963,-9.8241,-9.7745,-9.7751,-9.7756,0,-9.7549,-9.7577,-9.7772,-9.774,-9.7766,-9.7851,-9.7878,-9.7933,-9.7928,-9.7894,-9.7913,-9.7821,-9.7922,-9.7766,-9.7904,-9.7787,-9.7814,-9.7798,-9.7807,-9.7806,-9.7631,-9.7888,-9.8327,-9.8368,-9.7813,-9.7809,-9.7805,0,-9.7856,-9.7943,-9.807,-9.8078,-9.8045,-9.8107,-9.8096,-9.8083,-9.8112,-9.8138,-9.8155,-9.8193,-9.8212,-9.8244,-9.8164,-9.8058,-9.8312,-9.8149,-9.8284,-9.8287,-9.8339,-9.8336,-9.8785,-9.8367,-9.8366,-9.8365,-9.8364,0,-9.8193,-9.8317,-9.8207,-9.8285,-9.842,-9.832,-9.8456,-9.843,-9.8421,-9.849,-9.837,-9.8438,-9.8331,-9.8389,-9.8329,-9.845,-9.8462,-9.8435,-9.8417,-9.8443,-9.8446,-9.8455,-9.8432,-9.8376,-9.8374,-9.8372,-9.837,0,-9.8556,-9.8488,-9.8616,-9.8576,-9.8568,-9.8669,-9.8634,-9.8704,-9.8659,-9.8749,-9.8765,-9.8694,-9.8756,-9.8681,-9.8737,-9.8696,-9.886,-9.8816,-9.8861,-9.8847,-9.8984,-9.8971,-9.945,-9.9506,-9.9057,-9.9062,-9.9066,0,-9.8772,-9.8864,-9.8834,-9.8872,-9.8869,-9.8933,-9.8961,-9.8868,-9.8903,-9.8906,-9.8976,-9.9029,-9.9064,-9.917,-9.9123,-9.9166,-9.9118,-9.9283,-9.9123,-9.9147,-9.9115,-9.9109,-9.9116,-9.9314,-9.932,-9.9324,-9.9328,0,-9.9163,-9.9125,-9.9171,-9.9207,-9.9245,-9.9269,-9.9283,-9.9322,-9.9224,-9.927,-9.9332,-9.936,-9.9418,-9.947,-9.95,-9.9488,-9.9392,-9.938,-9.9412,-9.9437,-9.9458,-9.9444,-9.8945,-9.9367,-9.9363,-9.936,-9.9358,-9.9357,-9.9455,-9.953,-9.952,-9.9576,-9.9578,-9.9594,-9.9658,-9.9622,-9.9672,-9.971,-9.9653,-9.9731,-9.9725,-9.9755,-9.9755,-9.9814,-9.9742,-9.9791,-9.9802,-9.9814,-9.9833,-9.9454,-9.9819,-9.9818,-9.9817,-9.9816,-9.9815,0,-9.9836,-9.9823,-9.9876,-9.99,-9.9944,-9.9852,-9.9864,-9.9906,-9.9976,-9.9979,-10.0018,-10.0089,-10.014,-10.01,-10.0142,-10.0197,-10.0154,-10.0211,-10.0203,-10.0201,-9.9896,-9.9862,-10.0245,-10.0245,-10.0245,-10.0245,-10.0245,-10.0244,-10.0038,-10.0158,-10.0121,-10.0241,-10.0227,-10.0301,-10.0316,-10.033,-10.0332,-10.0417,-10.0459,-10.0433,-10.0418,-10.0459,-10.0502,-10.0488,-10.0508,-10.058,-10.0551,-10.0265,-10.0223,-10.0183,-10.0149,-10.0586,-10.0587,-10.085,-10.0852,-10.0854]},{"header":{"parameterUnit":"m.s-1","parameterCategory":1,"la1":30.2991,"la2":30.254,"lo1":-89.0895,"lo2":-89.0444,"dy":0.0017,"dx":0.0017,"nx":28,"ny":28,"refTime":"2024-06-18T03:00:00:Z","depth":0,"parameterNumber":3,"parameterNumberName":"V-component_of_WINDS"},"data":[0,0,0,0,0,0,0,0,0,0,0,0,0,0,0,0,0,0,0,0,0,0,0,0,0,0,0,0,0,0,0,0,0,0,0,0,0,0,0,0,0,0,0,0,0,0,0,0,0,0,0,0,0,0,0,0,0,0,2.3148,2.3149,0,2.3167,2.3168,2.3168,2.3151,2.315,2.3149,2.3149,2.3166,2.3167,2.3168,0,0,0,0,0,0,0,0,0,0,0,0,0,2.3097,2.3098,2.3148,2.3149,2.3149,2.3167,2.3168,2.3168,2.3151,2.315,2.3149,2.3148,2.3165,2.3167,2.3168,0,0,0,0,0,0,0,0,0,0,0,0,0,2.3118,2.3098,2.3148,2.3143,2.3142,2.3167,2.3168,2.3168,2.3151,2.315,2.3149,2.3148,2.3165,2.3167,2.3168,2.3199,0,0,2.3173,2.3174,0,0,0,0,0,0,0,0,2.3117,2.312,2.3143,2.3143,2.3143,2.3156,2.3156,2.3178,2.3151,2.3148,2.3149,2.3147,2.3163,2.3165,2.3171,2.32,2.3201,2.3173,2.3174,2.3175,2.3176,0,0,0,0,0,0,0,2.3115,2.3119,2.3156,2.3144,2.3143,2.3139,2.3141,2.316,2.3161,2.3148,2.3147,2.3149,2.3163,2.3169,2.3171,2.3201,2.3173,2.3175,2.3176,2.3176,2.3258,2.3259,0,0,0,0,0,0,2.3115,2.3118,2.3155,2.3156,2.3127,2.3141,2.3143,2.3152,2.3161,2.3161,2.315,2.3148,2.3167,2.3169,2.3171,2.3209,2.3175,2.3177,2.3178,2.3257,2.3259,2.326,0,0,0,0,0,0,2.3114,2.3118,2.3154,2.3137,2.3141,2.3143,2.3154,2.3153,2.316,2.3162,2.3162,2.3156,2.3166,2.3169,2.3193,2.3209,2.3177,2.3179,2.3256,2.3258,2.3259,2.3284,0,0,0,0,0,0,2.3112,2.3118,2.313,2.3137,2.3142,2.3176,2.3155,2.3155,2.3163,2.3161,2.3168,2.3168,2.3165,2.3191,2.3195,2.3211,2.318,2.3254,2.3257,2.3259,2.3282,2.3286,2.329,0,0,0,0,0,2.311,2.3135,2.313,2.3135,2.3157,2.3177,2.318,2.3176,2.3164,2.3176,2.3178,2.3168,2.3207,2.3193,2.3197,2.3215,2.3253,2.3256,2.3258,2.328,2.3285,2.329,0,0,0,0,0,0,2.3127,2.3136,2.3131,2.3158,2.3167,2.3174,2.3188,2.3182,2.3194,2.3191,2.3186,2.3188,2.3213,2.3216,2.3201,2.3246,2.3228,2.3232,2.3243,2.3248,2.3253,2.3251,2.3182,0,0,0,0,0,2.3135,2.3151,2.3157,2.3181,2.3186,2.3187,2.3195,2.3192,2.3201,2.3204,2.3208,2.3216,2.323,2.3239,2.3253,2.3282,2.3284,2.3297,2.3301,2.3305,2.3307,2.3325,2.3331,2.3269,2.3269,2.3269,0,0,2.3149,2.3156,2.3166,2.3184,2.3191,2.3208,2.319,2.3207,2.322,2.3206,2.3229,2.3233,2.3242,2.3269,2.3281,2.3272,2.3325,2.3308,2.3311,2.3312,2.3328,2.3334,2.3339,2.327,2.327,2.327,0,0,2.3184,2.3191,2.3212,2.322,2.323,2.3231,2.3237,2.3245,2.3247,2.327,2.3261,2.3276,2.33,2.3307,2.3314,2.3355,2.3347,2.336,2.3382,2.3399,2.3404,2.3408,2.3423,2.3428,2.3363,2.3363,2.3363,0,2.3201,2.3226,2.3223,2.3243,2.3252,2.3242,2.3264,2.3271,2.3285,2.3291,2.3282,2.3314,2.3319,2.3348,2.3359,2.3364,2.337,2.3358,2.3403,2.3408,2.3412,2.3426,2.3432,2.3364,2.3364,2.3364,2.3364,0,2.3246,2.3264,2.328,2.3295,2.3306,2.3326,2.3327,2.3338,2.3335,2.3337,2.3362,2.3369,2.3383,2.339,2.3387,2.342,2.3414,2.3404,2.3386,2.3419,2.3432,2.3438,2.3367,2.3366,2.3366,2.3365,0,0,2.329,2.3306,2.3312,2.332,2.3332,2.3346,2.3367,2.3382,2.3392,2.3403,2.342,2.3442,2.3434,2.3442,2.3439,2.3454,2.3487,2.3442,2.3442,2.345,2.3525,2.3532,2.3539,2.3482,2.3483,2.3484,2.3524,0,2.3326,2.3362,2.3362,2.3396,2.3413,2.3405,2.3424,2.3433,2.3436,2.3451,2.3454,2.347,2.3457,2.3462,2.3477,2.348,2.3502,2.3477,2.3498,2.3498,2.3495,2.3546,2.3553,2.3591,2.3529,2.353,2.3531,0,2.3372,2.3386,2.3422,2.3434,2.3441,2.3457,2.3473,2.3487,2.3499,2.35,2.351,2.3506,2.3527,2.3509,2.3539,2.3522,2.353,2.3534,2.3535,2.3536,2.3516,2.3548,2.3603,2.3608,2.3539,2.3538,2.3538,0,2.3401,2.3429,2.3455,2.3462,2.3476,2.3488,2.3494,2.3505,2.3515,2.3529,2.3535,2.3551,2.3559,2.3571,2.3571,2.3558,2.3601,2.3583,2.3603,2.3603,2.3611,2.3611,2.3668,2.3618,2.3617,2.3617,2.3617,0,2.3441,2.3463,2.3468,2.3484,2.3509,2.3509,2.3534,2.3539,2.3549,2.3566,2.356,2.3576,2.3575,2.3591,2.3591,2.3616,2.3619,2.3621,2.3621,2.3621,2.3621,2.3626,2.3624,2.3619,2.3619,2.3618,2.3618,0,2.3477,2.3482,2.3509,2.3522,2.3525,2.3543,2.3554,2.3569,2.3572,2.3594,2.3598,2.3604,2.3622,2.3624,2.3645,2.3645,2.3675,2.3672,2.3672,2.3671,2.3691,2.3689,2.3753,2.3761,2.3706,2.3706,2.3707,0,2.3502,2.352,2.3535,2.3546,2.3554,2.3572,2.3583,2.3584,2.3596,2.3612,2.3625,2.3643,2.3658,2.3688,2.3693,2.371,2.3707,2.3729,2.3709,2.371,2.3708,2.3707,2.3709,2.3732,2.3733,2.3733,2.3733,0,2.3546,2.3548,2.3565,2.3583,2.3597,2.3611,2.3624,2.3634,2.3637,2.365,2.367,2.3682,2.3705,2.3723,2.374,2.3746,2.374,2.374,2.3745,2.3746,2.3745,2.3746,2.3682,2.3738,2.3737,2.3737,2.3737,2.3737,2.3577,2.3593,2.3607,2.3627,2.3637,2.365,2.3666,2.3672,2.3689,2.3708,2.3708,2.373,2.3742,2.3765,2.3772,2.3789,2.3782,2.379,2.3792,2.3793,2.3796,2.3743,2.3792,2.3792,2.3792,2.3792,2.3792,0,2.3621,2.3631,2.3649,2.3669,2.3684,2.3679,2.3694,2.3707,2.3727,2.374,2.3755,2.3779,2.3797,2.3805,2.3823,2.3835,2.3833,2.384,2.3839,2.384,2.3801,2.3795,2.3841,2.3841,2.3841,2.3841,2.3841,2.3841,2.3646,2.3673,2.3677,2.371,2.3718,2.3741,2.375,2.3762,2.3773,2.3799,2.3815,2.3821,2.3832,2.3851,2.3868,2.387,2.3876,2.3884,2.3885,2.3848,2.3843,2.3838,2.3832,2.3886,2.3886,2.3923,2.3923,2.3924]}]]